BGA331 EDHI-LFBO

Flight info

Callsign BGA331
Flight time 1h 46m
Altitude 30000
Route DCT IDEKO N850 XAROL DCT BOMBI DCT GIGET DCT ABUKA DCT KRH DCT NATOR/N0470F350 DCT LUTIX DCT BENOT DCT NEMOS DCT NINTU DCT MEBAK DCT REPSI DCT LERGA DCT MINSO DCT NARAK DCT
Aircraft A337/H-SDE3GHIJ2J3J5M1RVWXY/LB2D1

Departure

Time 2026-04-25 22:22
Airport Hamburg-Finkenwerder Airport (EDHI)

Arrival

Time 2026-04-26 00:09
Airport Toulouse-Blagnac Airport (LFBO)
Time Latitude Longitude Altitude Speed Heading
2026-04-25 21:40 53.53966 9.83912 28 ft 0 kts 144°
2026-04-25 22:11 53.53971 9.83905 27 ft 2 kts 144°
2026-04-25 22:12 53.53984 9.83889 27 ft 2 kts 164°
2026-04-25 22:12 53.53994 9.83889 27 ft 0 kts 225°
2026-04-25 22:13 53.53991 9.83883 27 ft 3 kts 229°
2026-04-25 22:13 53.53971 9.83839 27 ft 6 kts 232°
2026-04-25 22:14 53.53945 9.83783 27 ft 6 kts 232°
2026-04-25 22:14 53.53919 9.83728 27 ft 7 kts 232°
2026-04-25 22:14 53.53887 9.83663 27 ft 8 kts 226°
2026-04-25 22:14 53.53835 9.83633 27 ft 9 kts 175°
2026-04-25 22:15 53.53774 9.83662 27 ft 10 kts 159°
2026-04-25 22:15 53.53762 9.83669 26 ft 0 kts 159°
2026-04-25 22:17 53.53742 9.83683 26 ft 6 kts 158°
2026-04-25 22:18 53.53698 9.83712 28 ft 8 kts 158°
2026-04-25 22:18 53.53663 9.83784 26 ft 9 kts 89°
2026-04-25 22:18 53.53692 9.83894 29 ft 11 kts 53°
2026-04-25 22:18 53.53738 9.83993 31 ft 12 kts 52°
2026-04-25 22:19 53.53791 9.84104 26 ft 13 kts 51°
2026-04-25 22:19 53.53829 9.84184 27 ft 13 kts 51°
2026-04-25 22:19 53.53899 9.84329 28 ft 12 kts 51°
2026-04-25 22:19 53.53965 9.84473 27 ft 17 kts 54°
2026-04-25 22:20 53.54041 9.84633 27 ft 21 kts 52°
2026-04-25 22:20 53.54133 9.84831 28 ft 22 kts 51°
2026-04-25 22:20 53.54240 9.84966 28 ft 18 kts 15°
2026-04-25 22:20 53.54273 9.85060 30 ft 5 kts 160°
2026-04-25 22:21 53.54229 9.85026 29 ft 8 kts 224°
2026-04-25 22:21 53.54226 9.85020 29 ft 0 kts 226°
2026-04-25 22:21 53.54225 9.85019 29 ft 1 kts 226°
2026-04-25 22:21 53.54150 9.84870 28 ft 44 kts 231°
2026-04-25 22:22 53.53840 9.84201 28 ft 100 kts 230°
2026-04-25 22:22 53.53301 9.83065 27 ft 148 kts 231°
2026-04-25 22:22 53.52588 9.81625 381 ft 165 kts 233°
2026-04-25 22:22 53.51846 9.80215 1109 ft 161 kts 236°
2026-04-25 22:23 53.51150 9.78727 1757 ft 166 kts 242°
2026-04-25 22:23 53.50423 9.77045 2038 ft 191 kts 242°
2026-04-25 22:23 53.49574 9.75095 2208 ft 222 kts 240°
2026-04-25 22:23 53.48613 9.72874 2470 ft 246 kts 240°
2026-04-25 22:24 53.47593 9.70491 2985 ft 255 kts 240°
2026-04-25 22:24 53.46540 9.68029 3558 ft 263 kts 240°
2026-04-25 22:24 53.45461 9.65504 4155 ft 269 kts 240°
2026-04-25 22:24 53.44386 9.62991 4911 ft 268 kts 240°
2026-04-25 22:25 53.43299 9.60446 5653 ft 269 kts 242°
2026-04-25 22:25 53.42212 9.57901 6443 ft 269 kts 242°
2026-04-25 22:25 53.41092 9.55378 7153 ft 273 kts 237°
2026-04-25 22:25 53.39669 9.53166 7825 ft 285 kts 225°
2026-04-25 22:26 53.37913 9.51476 8502 ft 299 kts 208°
2026-04-25 22:26 53.36592 9.50739 8948 ft 306 kts 202°
2026-04-25 22:26 53.34484 9.49989 9595 ft 314 kts 195°
2026-04-25 22:26 53.32294 9.49542 10224 ft 320 kts 192°
2026-04-25 22:27 53.29261 9.49150 10610 ft 342 kts 189°
2026-04-25 22:27 53.26834 9.48883 10890 ft 356 kts 189°
2026-04-25 22:27 53.25149 9.48694 11178 ft 361 kts 189°
2026-04-25 22:27 53.21801 9.48290 11866 ft 367 kts 189°
2026-04-25 22:28 53.20108 9.48069 12226 ft 370 kts 190°
2026-04-25 22:28 53.17533 9.47714 12757 ft 373 kts 190°
2026-04-25 22:28 53.14934 9.47338 13306 ft 377 kts 190°
2026-04-25 22:28 53.12307 9.46951 13836 ft 381 kts 190°
2026-04-25 22:29 53.08790 9.46428 14473 ft 385 kts 190°
2026-04-25 22:29 53.06985 9.46161 14813 ft 386 kts 191°
2026-04-25 22:29 53.04299 9.45764 15325 ft 388 kts 191°
2026-04-25 22:30 52.98920 9.44952 16295 ft 393 kts 192°
2026-04-25 22:30 52.96201 9.44437 16765 ft 394 kts 193°
2026-04-25 22:30 52.93474 9.43862 17245 ft 396 kts 193°
2026-04-25 22:30 52.91660 9.43462 17557 ft 398 kts 194°
2026-04-25 22:31 52.87977 9.42642 18195 ft 401 kts 194°
2026-04-25 22:31 52.85212 9.42033 18667 ft 401 kts 193°
2026-04-25 22:31 52.82444 9.41430 19085 ft 402 kts 193°
2026-04-25 22:31 52.79659 9.40829 19452 ft 405 kts 193°
2026-04-25 22:32 52.76894 9.40237 19824 ft 408 kts 193°
2026-04-25 22:32 52.74071 9.39636 20187 ft 410 kts 193°
2026-04-25 22:32 52.71236 9.39036 20549 ft 412 kts 193°
2026-04-25 22:32 52.68384 9.38433 20912 ft 414 kts 193°
2026-04-25 22:33 52.65521 9.37829 21264 ft 416 kts 193°
2026-04-25 22:33 52.62639 9.37213 21607 ft 418 kts 193°
2026-04-25 22:33 52.59766 9.36529 22013 ft 418 kts 194°
2026-04-25 22:33 52.56889 9.35787 22356 ft 420 kts 194°
2026-04-25 22:34 52.53998 9.35015 22687 ft 422 kts 194°
2026-04-25 22:34 52.51097 9.34234 23013 ft 424 kts 194°
2026-04-25 22:34 52.48217 9.33462 23335 ft 426 kts 194°
2026-04-25 22:34 52.45287 9.32684 23644 ft 428 kts 194°
2026-04-25 22:35 52.42341 9.31908 23931 ft 430 kts 194°
2026-04-25 22:35 52.39386 9.31135 24175 ft 431 kts 194°
2026-04-25 22:35 52.36432 9.30368 24599 ft 427 kts 193°
2026-04-25 22:35 52.33509 9.29613 25007 ft 425 kts 194°
2026-04-25 22:36 52.30591 9.28855 25335 ft 424 kts 194°
2026-04-25 22:36 52.27680 9.28096 25620 ft 424 kts 194°
2026-04-25 22:36 52.24767 9.27335 25941 ft 423 kts 194°
2026-04-25 22:36 52.21891 9.26645 26263 ft 424 kts 192°
2026-04-25 22:37 52.18965 9.26058 26582 ft 423 kts 191°
2026-04-25 22:37 52.16041 9.25532 26872 ft 423 kts 191°
2026-04-25 22:37 52.13126 9.25032 27285 ft 419 kts 190°
2026-04-25 22:37 52.10235 9.24540 27655 ft 417 kts 190°
2026-04-25 22:38 52.07352 9.24041 27936 ft 417 kts 190°
2026-04-25 22:38 52.04472 9.23494 28214 ft 416 kts 192°
2026-04-25 22:38 52.01612 9.22824 28495 ft 415 kts 193°
2026-04-25 22:38 51.98761 9.22082 28790 ft 414 kts 194°
2026-04-25 22:39 51.95959 9.21323 29076 ft 414 kts 194°
2026-04-25 22:39 51.93124 9.20550 29355 ft 413 kts 194°
2026-04-25 22:39 51.90291 9.19785 29671 ft 411 kts 193°
2026-04-25 22:39 51.87474 9.19061 29999 ft 410 kts 193°
2026-04-25 22:40 51.84650 9.18403 30271 ft 410 kts 192°
2026-04-25 22:40 51.81826 9.17785 30483 ft 410 kts 192°
2026-04-25 22:40 51.78998 9.17184 30694 ft 410 kts 191°
2026-04-25 22:40 51.76172 9.16587 30911 ft 409 kts 191°
2026-04-25 22:41 51.73388 9.15998 31118 ft 409 kts 191°
2026-04-25 22:41 51.70569 9.15397 31325 ft 408 kts 191°
2026-04-25 22:41 51.67755 9.14793 31526 ft 408 kts 191°
2026-04-25 22:41 51.64942 9.14187 31717 ft 408 kts 191°
2026-04-25 22:42 51.62132 9.13581 31927 ft 407 kts 191°
2026-04-25 22:42 51.59325 9.12976 32116 ft 407 kts 191°
2026-04-25 22:42 51.56523 9.12373 32333 ft 406 kts 191°
2026-04-25 22:42 51.53721 9.11771 32510 ft 406 kts 191°
2026-04-25 22:43 51.50926 9.11160 32685 ft 405 kts 192°
2026-04-25 22:43 51.48154 9.10396 32868 ft 404 kts 194°
2026-04-25 22:43 51.45442 9.09511 33020 ft 403 kts 195°
2026-04-25 22:43 51.42714 9.08556 33220 ft 401 kts 196°
2026-04-25 22:44 51.39995 9.07584 33424 ft 400 kts 196°
2026-04-25 22:44 51.37281 9.06619 33569 ft 400 kts 196°
2026-04-25 22:44 51.34565 9.05666 33735 ft 400 kts 195°
2026-04-25 22:44 51.31843 9.04737 33869 ft 400 kts 194°
2026-04-25 22:45 51.29101 9.03983 34022 ft 401 kts 191°
2026-04-25 22:45 51.26337 9.03382 34160 ft 401 kts 190°
2026-04-25 22:45 51.23570 9.02857 34278 ft 401 kts 189°
2026-04-25 22:45 51.20802 9.02356 34381 ft 400 kts 189°
2026-04-25 22:46 51.18081 9.01860 34528 ft 398 kts 190°
2026-04-25 22:46 51.15332 9.01346 34647 ft 398 kts 190°
2026-04-25 22:46 51.09835 9.00279 34845 ft 398 kts 190°
2026-04-25 22:47 51.04342 8.99189 35034 ft 398 kts 191°
2026-04-25 22:47 50.98835 8.98094 34963 ft 399 kts 191°
2026-04-25 22:48 50.96094 8.97553 35126 ft 393 kts 192°
2026-04-25 22:48 50.93407 8.97027 35163 ft 385 kts 192°
2026-04-25 22:48 50.88139 8.95993 35165 ft 380 kts 192°
2026-04-25 22:49 50.82932 8.94964 35168 ft 380 kts 192°
2026-04-25 22:49 50.77689 8.93930 35169 ft 379 kts 192°
2026-04-25 22:50 50.72452 8.92904 35167 ft 379 kts 192°
2026-04-25 22:50 50.67219 8.91882 35165 ft 379 kts 192°
2026-04-25 22:51 50.62053 8.90875 35163 ft 379 kts 192°
2026-04-25 22:51 50.56865 8.89866 35143 ft 379 kts 191°
2026-04-25 22:52 50.51612 8.88848 35150 ft 380 kts 191°
2026-04-25 22:52 50.46413 8.87842 35160 ft 378 kts 191°
2026-04-25 22:53 50.41190 8.86833 35162 ft 378 kts 191°
2026-04-25 22:53 50.35970 8.85826 35162 ft 378 kts 191°
2026-04-25 22:54 50.30748 8.84821 35152 ft 378 kts 191°
2026-04-25 22:54 50.25534 8.83820 35168 ft 378 kts 191°
2026-04-25 22:55 50.20337 8.82826 35170 ft 378 kts 191°
2026-04-25 22:55 50.15128 8.81831 35177 ft 377 kts 191°
2026-04-25 22:56 50.09917 8.80837 35175 ft 377 kts 191°
2026-04-25 22:56 50.04708 8.79836 35177 ft 377 kts 191°
2026-04-25 22:57 49.99550 8.78775 35180 ft 376 kts 191°
2026-04-25 22:57 49.94358 8.77685 35179 ft 376 kts 191°
2026-04-25 22:58 49.89170 8.76602 35161 ft 376 kts 191°
2026-04-25 22:58 49.83985 8.75526 35157 ft 376 kts 191°
2026-04-25 22:59 49.78800 8.74456 35162 ft 376 kts 191°
2026-04-25 22:59 49.73657 8.73398 35171 ft 375 kts 191°
2026-04-25 23:00 49.68476 8.72337 35174 ft 376 kts 191°
2026-04-25 23:00 49.63296 8.71288 35170 ft 375 kts 190°
2026-04-25 23:01 49.58115 8.70242 35182 ft 376 kts 190°
2026-04-25 23:01 49.52927 8.69200 35183 ft 376 kts 190°
2026-04-25 23:02 49.47773 8.68167 35184 ft 376 kts 190°
2026-04-25 23:02 49.42578 8.67120 35182 ft 376 kts 190°
2026-04-25 23:03 49.37384 8.66067 35182 ft 376 kts 190°
2026-04-25 23:03 49.32187 8.65017 35181 ft 377 kts 190°
2026-04-25 23:04 49.26992 8.63969 35179 ft 377 kts 190°
2026-04-25 23:04 49.21792 8.62923 35173 ft 377 kts 190°
2026-04-25 23:05 49.16627 8.61887 35173 ft 378 kts 189°
2026-04-25 23:05 49.11412 8.60842 35173 ft 378 kts 189°
2026-04-25 23:06 49.06195 8.59800 35173 ft 378 kts 189°
2026-04-25 23:06 49.00975 8.58760 35177 ft 378 kts 189°
2026-04-25 23:07 48.95828 8.57437 35173 ft 377 kts 193°
2026-04-25 23:07 48.90699 8.55742 35175 ft 377 kts 194°
2026-04-25 23:08 48.85572 8.54009 35174 ft 377 kts 194°
2026-04-25 23:08 48.80437 8.52320 35179 ft 378 kts 194°
2026-04-25 23:09 48.75293 8.50659 35169 ft 378 kts 193°
2026-04-25 23:09 48.70182 8.49019 35175 ft 378 kts 193°
2026-04-25 23:10 48.65031 8.47369 35174 ft 378 kts 193°
2026-04-25 23:10 48.59881 8.45721 35172 ft 378 kts 193°
2026-04-25 23:11 48.54726 8.44075 35172 ft 379 kts 193°
2026-04-25 23:11 48.49603 8.42442 35176 ft 379 kts 193°
2026-04-25 23:12 48.44445 8.40801 35169 ft 379 kts 193°
2026-04-25 23:12 48.39286 8.39164 35178 ft 379 kts 193°
2026-04-25 23:13 48.34125 8.37529 35171 ft 379 kts 193°
2026-04-25 23:13 48.28964 8.35897 35174 ft 380 kts 193°
2026-04-25 23:14 48.23823 8.34277 35177 ft 380 kts 193°
2026-04-25 23:14 48.18667 8.32552 35176 ft 379 kts 199°
2026-04-25 23:15 48.13947 8.29181 35178 ft 376 kts 212°
2026-04-25 23:15 48.09508 8.25023 35182 ft 377 kts 214°
2026-04-25 23:16 48.05126 8.20732 35181 ft 377 kts 214°
2026-04-25 23:16 48.00766 8.16484 35175 ft 377 kts 214°
2026-04-25 23:17 47.95556 8.11468 35173 ft 377 kts 214°
2026-04-25 23:17 47.80101 7.96712 35182 ft 377 kts 213°
2026-04-25 23:18 47.75678 7.92507 35173 ft 377 kts 213°
2026-04-25 23:18 47.71281 7.88334 35171 ft 378 kts 213°
2026-04-25 23:19 47.66846 7.84136 35166 ft 378 kts 213°
2026-04-25 23:19 47.62396 7.79931 35164 ft 378 kts 213°
2026-04-25 23:20 47.53884 7.71913 35156 ft 378 kts 213°
2026-04-25 23:20 47.49465 7.67761 35159 ft 379 kts 213°
2026-04-25 23:21 47.45013 7.63587 35161 ft 379 kts 213°
2026-04-25 23:21 47.40556 7.59419 35160 ft 379 kts 213°
2026-04-25 23:22 47.36099 7.55258 35164 ft 379 kts 213°
2026-04-25 23:23 47.29435 7.49053 35161 ft 380 kts 213°
2026-04-25 23:23 47.24970 7.44905 35153 ft 379 kts 213°
2026-04-25 23:24 47.20522 7.40780 35152 ft 377 kts 213°
2026-04-25 23:24 47.16328 7.36277 35155 ft 376 kts 226°
2026-04-25 23:25 47.12881 7.30508 35159 ft 376 kts 231°
2026-04-25 23:25 47.09622 7.24506 35162 ft 376 kts 232°
2026-04-25 23:26 47.06391 7.18474 35158 ft 376 kts 232°
2026-04-25 23:26 47.03165 7.12509 35191 ft 376 kts 232°
2026-04-25 23:27 46.99900 7.06525 35158 ft 376 kts 231°
2026-04-25 23:27 46.96629 7.00555 35158 ft 376 kts 231°
2026-04-25 23:28 46.93354 6.94588 35161 ft 376 kts 231°
2026-04-25 23:28 46.90088 6.88651 35153 ft 374 kts 231°
2026-04-25 23:29 46.86846 6.82781 35163 ft 374 kts 231°
2026-04-25 23:29 46.83579 6.76878 35163 ft 374 kts 231°
2026-04-25 23:30 46.80308 6.70982 35153 ft 374 kts 231°
2026-04-25 23:30 46.77034 6.65094 35172 ft 374 kts 233°
2026-04-25 23:31 46.71198 6.54622 35147 ft 374 kts 233°
2026-04-25 23:31 46.58090 6.31247 35146 ft 372 kts 232°
2026-04-25 23:32 46.44957 6.08029 35147 ft 372 kts 232°
2026-04-25 23:32 46.31796 5.84956 35153 ft 371 kts 232°
2026-04-25 23:33 46.18664 5.62121 35143 ft 372 kts 232°
2026-04-25 23:33 46.06502 5.38147 35140 ft 370 kts 237°
2026-04-25 23:34 45.85410 4.94641 35123 ft 365 kts 237°
2026-04-25 23:34 45.61917 4.46951 35184 ft 365 kts 236°
2026-04-25 23:35 45.38364 3.99919 35175 ft 367 kts 236°
2026-04-25 23:35 45.18638 3.60681 35173 ft 364 kts 237°
2026-04-25 23:36 45.15744 3.54752 35035 ft 369 kts 237°
2026-04-25 23:36 45.12869 3.48942 34675 ft 353 kts 237°
2026-04-25 23:36 45.11461 3.46107 34215 ft 351 kts 237°
2026-04-25 23:37 45.10058 3.43284 33636 ft 350 kts 237°
2026-04-25 23:37 45.08677 3.40505 32889 ft 349 kts 237°
2026-04-25 23:37 45.07275 3.37685 32069 ft 353 kts 237°
2026-04-25 23:37 45.05857 3.34832 31632 ft 355 kts 237°
2026-04-25 23:38 45.04443 3.31992 31241 ft 352 kts 236°
2026-04-25 23:38 45.03021 3.29138 30982 ft 361 kts 236°
2026-04-25 23:38 45.01557 3.26204 30730 ft 368 kts 236°
2026-04-25 23:38 45.00077 3.23240 30487 ft 370 kts 236°
2026-04-25 23:39 44.98588 3.20264 30242 ft 371 kts 236°
2026-04-25 23:39 44.97095 3.17284 29952 ft 372 kts 236°
2026-04-25 23:39 44.95618 3.14338 29684 ft 373 kts 236°
2026-04-25 23:39 44.94117 3.11348 29407 ft 374 kts 236°
2026-04-25 23:40 44.92610 3.08349 29118 ft 375 kts 236°
2026-04-25 23:40 44.91100 3.05346 28837 ft 376 kts 236°
2026-04-25 23:40 44.89589 3.02342 28585 ft 375 kts 236°
2026-04-25 23:40 44.88077 2.99342 28308 ft 375 kts 236°
2026-04-25 23:41 44.86568 2.96351 28048 ft 375 kts 236°
2026-04-25 23:41 44.85079 2.93384 27788 ft 376 kts 237°
2026-04-25 23:41 44.83630 2.90315 27532 ft 377 kts 238°
2026-04-25 23:41 44.82203 2.87216 27267 ft 378 kts 238°
2026-04-25 23:42 44.80776 2.84107 27214 ft 379 kts 238°
2026-04-25 23:42 44.79343 2.80991 27212 ft 379 kts 238°
2026-04-25 23:42 44.77911 2.77883 27211 ft 379 kts 238°
2026-04-25 23:42 44.76477 2.74775 27214 ft 378 kts 238°
2026-04-25 23:43 44.75041 2.71668 27215 ft 378 kts 238°
2026-04-25 23:43 44.73608 2.68570 27214 ft 378 kts 238°
2026-04-25 23:43 44.72173 2.65471 27220 ft 378 kts 237°
2026-04-25 23:43 44.70759 2.62422 27219 ft 376 kts 237°
2026-04-25 23:44 44.69332 2.59348 27216 ft 375 kts 237°
2026-04-25 23:44 44.67906 2.56281 27219 ft 375 kts 237°
2026-04-25 23:44 44.66481 2.53216 27219 ft 375 kts 237°
2026-04-25 23:44 44.65055 2.50154 27232 ft 375 kts 237°
2026-04-25 23:45 44.63627 2.47091 27235 ft 375 kts 237°
2026-04-25 23:45 44.62200 2.44032 27197 ft 375 kts 237°
2026-04-25 23:45 44.60770 2.40971 26938 ft 375 kts 237°
2026-04-25 23:45 44.59376 2.37992 26783 ft 364 kts 237°
2026-04-25 23:46 44.58011 2.35079 26638 ft 351 kts 237°
2026-04-25 23:46 44.56674 2.32225 26186 ft 352 kts 237°
2026-04-25 23:46 44.55323 2.29343 25649 ft 355 kts 237°
2026-04-25 23:46 44.53963 2.26446 25141 ft 357 kts 237°
2026-04-25 23:47 44.52596 2.23537 24619 ft 357 kts 237°
2026-04-25 23:47 44.51225 2.20623 24092 ft 359 kts 237°
2026-04-25 23:47 44.49846 2.17695 23528 ft 360 kts 237°
2026-04-25 23:47 44.48472 2.14782 23156 ft 358 kts 237°
2026-04-25 23:48 44.47122 2.11921 22804 ft 357 kts 237°
2026-04-25 23:48 44.45754 2.09026 22432 ft 355 kts 237°
2026-04-25 23:48 44.44395 2.06153 22060 ft 354 kts 237°
2026-04-25 23:48 44.43040 2.03290 21696 ft 352 kts 237°
2026-04-25 23:49 44.41691 2.00441 21330 ft 350 kts 237°
2026-04-25 23:49 44.40346 1.97607 20960 ft 349 kts 237°
2026-04-25 23:49 44.39005 1.94782 20599 ft 349 kts 237°
2026-04-25 23:49 44.37665 1.91963 20224 ft 347 kts 237°
2026-04-25 23:50 44.36349 1.89195 19864 ft 346 kts 237°
2026-04-25 23:50 44.35020 1.86404 19508 ft 344 kts 237°
2026-04-25 23:50 44.33696 1.83626 19131 ft 343 kts 237°
2026-04-25 23:50 44.32377 1.80862 18771 ft 342 kts 237°
2026-04-25 23:51 44.31062 1.78108 18391 ft 340 kts 237°
2026-04-25 23:51 44.29657 1.75459 17986 ft 339 kts 228°
2026-04-25 23:51 44.27883 1.73297 17650 ft 339 kts 218°
2026-04-25 23:51 44.25963 1.71407 17290 ft 337 kts 216°
2026-04-25 23:52 44.24053 1.69595 16916 ft 336 kts 215°
2026-04-25 23:52 44.22129 1.67773 16562 ft 334 kts 215°
2026-04-25 23:52 44.20215 1.65955 16211 ft 332 kts 216°
2026-04-25 23:52 44.18311 1.64143 15849 ft 330 kts 216°
2026-04-25 23:53 44.16420 1.62342 15489 ft 328 kts 216°
2026-04-25 23:53 44.14542 1.60551 15137 ft 327 kts 216°
2026-04-25 23:53 44.12672 1.58769 14793 ft 325 kts 216°
2026-04-25 23:53 44.10838 1.57023 14440 ft 323 kts 216°
2026-04-25 23:54 44.08991 1.55264 14087 ft 321 kts 216°
2026-04-25 23:54 44.07151 1.53514 13711 ft 319 kts 216°
2026-04-25 23:54 44.05322 1.51775 13347 ft 317 kts 216°
2026-04-25 23:54 44.03507 1.50051 12996 ft 315 kts 216°
2026-04-25 23:55 44.01702 1.48337 12647 ft 313 kts 216°
2026-04-25 23:55 43.99904 1.46632 12298 ft 312 kts 215°
2026-04-25 23:55 43.98011 1.45167 11946 ft 312 kts 202°
2026-04-25 23:55 43.95923 1.44380 11607 ft 311 kts 192°
2026-04-25 23:56 43.93873 1.43874 11506 ft 295 kts 191°
2026-04-25 23:56 43.91899 1.43422 11410 ft 281 kts 191°
2026-04-25 23:56 43.90004 1.42986 11285 ft 271 kts 191°
2026-04-25 23:56 43.88142 1.42551 11152 ft 273 kts 191°
2026-04-25 23:57 43.86266 1.42109 10818 ft 273 kts 191°
2026-04-25 23:57 43.84390 1.41732 10509 ft 272 kts 184°
2026-04-25 23:57 43.82519 1.41999 10219 ft 272 kts 163°
2026-04-25 23:57 43.80844 1.43195 9894 ft 272 kts 146°
2026-04-25 23:58 43.79353 1.44746 9595 ft 272 kts 142°
2026-04-25 23:58 43.77876 1.46370 9306 ft 271 kts 142°
2026-04-25 23:58 43.76407 1.47985 9007 ft 269 kts 142°
2026-04-25 23:58 43.74941 1.49584 8701 ft 267 kts 142°
2026-04-25 23:59 43.73483 1.51165 8382 ft 266 kts 142°
2026-04-25 23:59 43.71993 1.52774 8159 ft 280 kts 142°
2026-04-25 23:59 43.70434 1.54451 7781 ft 286 kts 142°
2026-04-25 23:59 43.68868 1.56136 7488 ft 284 kts 142°
2026-04-26 00:00 43.67333 1.57784 7206 ft 283 kts 142°
2026-04-26 00:00 43.65782 1.59448 6919 ft 282 kts 142°
2026-04-26 00:00 43.64264 1.61076 6728 ft 270 kts 141°
2026-04-26 00:00 43.62752 1.62542 6464 ft 263 kts 152°
2026-04-26 00:01 43.61036 1.63264 6187 ft 256 kts 176°
2026-04-26 00:01 43.59278 1.63181 5876 ft 252 kts 186°
2026-04-26 00:01 43.57539 1.62895 5491 ft 251 kts 188°
2026-04-26 00:01 43.55837 1.62588 5184 ft 248 kts 188°
2026-04-26 00:02 43.54147 1.62290 4919 ft 242 kts 188°
2026-04-26 00:02 43.52492 1.62005 4656 ft 237 kts 188°
2026-04-26 00:02 43.50868 1.61725 4398 ft 234 kts 189°
2026-04-26 00:02 43.49322 1.61095 4179 ft 232 kts 210°
2026-04-26 00:03 43.48152 1.59634 3928 ft 227 kts 239°
2026-04-26 00:03 43.47570 1.57637 3699 ft 225 kts 257°
2026-04-26 00:03 43.47228 1.55538 3468 ft 225 kts 262°
2026-04-26 00:03 43.47251 1.53412 3168 ft 222 kts 287°
2026-04-26 00:04 43.48017 1.51637 3018 ft 215 kts 316°
2026-04-26 00:04 43.49099 1.50385 3021 ft 198 kts 323°
2026-04-26 00:04 43.50159 1.49310 3011 ft 180 kts 324°
2026-04-26 00:04 43.51122 1.48342 3012 ft 166 kts 324°
2026-04-26 00:05 43.52058 1.47432 2957 ft 164 kts 323°
2026-04-26 00:05 43.52964 1.46478 2766 ft 164 kts 323°
2026-04-26 00:05 43.53870 1.45537 2516 ft 162 kts 323°
2026-04-26 00:05 43.54751 1.44624 2288 ft 154 kts 323°
2026-04-26 00:06 43.55571 1.43772 2095 ft 141 kts 323°
2026-04-26 00:06 43.56344 1.42969 1900 ft 138 kts 323°
2026-04-26 00:06 43.57104 1.42183 1723 ft 139 kts 323°
2026-04-26 00:06 43.57875 1.41383 1529 ft 139 kts 323°
2026-04-26 00:07 43.58645 1.40573 1362 ft 139 kts 322°
2026-04-26 00:07 43.59423 1.39779 1151 ft 139 kts 323°
2026-04-26 00:07 43.60191 1.38982 951 ft 138 kts 322°
2026-04-26 00:07 43.60958 1.38190 771 ft 138 kts 323°
2026-04-26 00:08 43.61719 1.37391 592 ft 137 kts 322°
2026-04-26 00:08 43.62467 1.36616 487 ft 124 kts 323°
2026-04-26 00:08 43.63074 1.35978 487 ft 97 kts 322°
2026-04-26 00:08 43.63543 1.35500 487 ft 74 kts 322°
2026-04-26 00:09 43.63895 1.35133 487 ft 44 kts 323°
2026-04-26 00:09 43.64020 1.34952 492 ft 17 kts 274°
2026-04-26 00:09 43.63967 1.34816 487 ft 15 kts 222°
2026-04-26 00:09 43.63874 1.34841 488 ft 15 kts 147°
2026-04-26 00:10 43.63787 1.34931 489 ft 17 kts 143°
2026-04-26 00:10 43.63691 1.35031 487 ft 18 kts 143°
2026-04-26 00:10 43.63585 1.35141 487 ft 23 kts 143°
2026-04-26 00:10 43.63550 1.35177 489 ft 1 kts 143°
2026-04-26 00:11 43.63479 1.35250 493 ft 18 kts 143°
2026-04-26 00:11 43.63376 1.35358 489 ft 19 kts 145°
2026-04-26 00:11 43.63269 1.35470 487 ft 20 kts 143°
2026-04-26 00:11 43.63157 1.35586 490 ft 21 kts 143°
2026-04-26 00:12 43.63040 1.35708 487 ft 22 kts 143°
2026-04-26 00:12 43.62918 1.35835 487 ft 22 kts 143°
2026-04-26 00:12 43.62792 1.35966 489 ft 23 kts 142°
2026-04-26 00:12 43.62663 1.36101 487 ft 24 kts 143°
2026-04-26 00:13 43.62529 1.36240 487 ft 24 kts 143°
2026-04-26 00:13 43.62392 1.36381 487 ft 25 kts 143°
2026-04-26 00:13 43.62310 1.36467 489 ft 0 kts 143°
2026-04-26 00:13 43.62309 1.36468 489 ft 1 kts 143°
2026-04-26 00:14 43.62299 1.36478 489 ft 3 kts 143°
2026-04-26 00:14 43.62282 1.36496 490 ft 3 kts 143°
2026-04-26 00:14 43.62237 1.36543 487 ft 10 kts 143°
2026-04-26 00:14 43.62147 1.36592 493 ft 15 kts 174°
2026-04-26 00:15 43.62036 1.36594 498 ft 18 kts 180°
2026-04-26 00:15 43.61910 1.36593 498 ft 19 kts 181°
2026-04-26 00:15 43.61776 1.36587 494 ft 20 kts 181°
2026-04-26 00:15 43.61647 1.36636 493 ft 18 kts 161°
2026-04-26 00:16 43.61572 1.36622 489 ft 8 kts 196°
2026-04-26 00:16 43.61541 1.36567 492 ft 7 kts 254°
2026-04-26 00:16 43.61541 1.36492 498 ft 8 kts 271°
2026-04-26 00:16 43.61542 1.36479 498 ft 0 kts 271°